This is the latest recevied weather packets stored in our database for station/object KC1DMA. If no packets are shown the sender has not sent any weather packets the latest 10 day(s).
| Time | Temp. | Humidity | Pressure | Rain* | Wind** | Luminosity | Snow |
|---|---|---|---|---|---|---|---|
| 1777117801 | 6.67° C | 75% | 1019.9 hPa | - | - | 186 W/m² | - |
| 1777117498 | 6.67° C | 78% | 1019.7 hPa | - | - | 179 W/m² | - |
| 1777117196 | 6.67° C | 79% | 1019.8 hPa | - | - | 160 W/m² | - |
| 1777116889 | 6.67° C | 82% | 1019.7 hPa | - | - | 137 W/m² | - |
| 1777116586 | 6.11° C | 86% | 1019.7 hPa | - | - | 121 W/m² | - |
| 1777116282 | 5° C | 89% | 1019.7 hPa | - | - | 107 W/m² | - |
| 1777115977 | 5° C | 92% | 1019.6 hPa | - | - | 97 W/m² | - |
| 1777115672 | 3.89° C | 93% | 1019.7 hPa | - | - | 87 W/m² | - |
| 1777115369 | 4.44° C | 96% | 1019.7 hPa | - | - | 74 W/m² | - |
| 1777115066 | 3.89° C | 96% | 1019.4 hPa | - | - | 61 W/m² | - |
| 1777114763 | 2.78° C | 96% | 1019.6 hPa | - | - | 47 W/m² | - |
| 1777114458 | 2.22° C | 96% | 1019.4 hPa | - | - | 38 W/m² | - |
| 1777114154 | 1.67° C | 95% | 1019.4 hPa | - | - | 32 W/m² | - |
| 1777113851 | 1.67° C | 95% | 1019.3 hPa | - | - | 29 W/m² | - |
| 1777113549 | 1.67° C | 95% | 1019.1 hPa | - | - | 27 W/m² | - |
| 1777113249 | 1.67° C | 95% | 1019.2 hPa | - | - | 24 W/m² | - |
| 1777112944 | 1.67° C | 95% | 1019.3 hPa | - | - | 21 W/m² | - |
| 1777112641 | 1.67° C | 95% | 1019.2 hPa | - | - | 18 W/m² | - |
| 1777112337 | 1.67° C | 95% | 1019.2 hPa | - | - | 15 W/m² | - |
| 1777112035 | 1.11° C | 95% | 1018.9 hPa | - | - | 12 W/m² | - |
| 1777111731 | 1.11° C | 95% | 1018.9 hPa | - | - | 9 W/m² | - |
| 1777111427 | 1.67° C | 95% | 1018.9 hPa | - | - | 6 W/m² | - |
| 1777111123 | 1.67° C | 95% | 1018.9 hPa | - | - | 4 W/m² | - |
| 1777110815 | 1.67° C | 95% | 1018.7 hPa | - | - | 2 W/m² | - |
| 1777110510 | 1.67° C | 95% | 1018.7 hPa | - | - | 1 W/m² | - |
* Rain since midnight (hover to see other rain measurements)
** Current wind speed in m/s (hover to see current wind gust speed)